[[{"header":{"parameterUnit":"m.s-1","parameterCategory":1,"la1":30.2991,"la2":30.254,"lo1":-89.0895,"lo2":-89.0444,"dy":0.0017,"dx":0.0017,"nx":28,"ny":28,"refTime":"2024-06-16T21:00:00:Z","depth":0,"parameterNumber":2,"parameterNumberName":"U-component_of_WINDS"},"data":[0,0,0,0,0,0,0,0,0,0,0,0,0,0,0,0,0,0,0,0,0,0,0,0,0,0,0,0,0,0,0,0,0,0,0,0,0,0,0,0,0,0,0,0,0,0,0,0,0,0,0,0,0,0,0,0,0,0,-1.4748,-1.4747,0,-1.4667,-1.4666,-1.4665,-1.4657,-1.4658,-1.4659,-1.466,-1.4569,-1.4566,-1.4563,0,0,0,0,0,0,0,0,0,0,0,0,0,-1.4889,-1.4886,-1.4748,-1.4747,-1.4746,-1.4667,-1.4666,-1.4665,-1.4657,-1.4658,-1.4659,-1.466,-1.457,-1.4566,-1.4562,0,0,0,0,0,0,0,0,0,0,0,0,0,-1.4819,-1.4885,-1.4748,-1.4733,-1.4731,-1.4668,-1.4666,-1.4665,-1.4657,-1.4658,-1.466,-1.4661,-1.4571,-1.4567,-1.4562,-1.4506,0,0,-1.4547,-1.4545,0,0,0,0,0,0,0,0,-1.4823,-1.4814,-1.4736,-1.4734,-1.4731,-1.4674,-1.4683,-1.4611,-1.4657,-1.4685,-1.466,-1.4661,-1.4602,-1.4595,-1.4577,-1.4502,-1.4498,-1.4547,-1.4544,-1.4542,-1.454,0,0,0,0,0,0,0,-1.4828,-1.4818,-1.4716,-1.4735,-1.4732,-1.4728,-1.4719,-1.4669,-1.4637,-1.4682,-1.4682,-1.4673,-1.4601,-1.4581,-1.4575,-1.4497,-1.4547,-1.4543,-1.454,-1.4538,-1.4372,-1.4371,0,0,0,0,0,0,-1.4837,-1.4822,-1.4718,-1.4713,-1.4782,-1.4724,-1.4715,-1.4691,-1.4638,-1.4631,-1.4672,-1.4672,-1.4589,-1.458,-1.4571,-1.4502,-1.4542,-1.4537,-1.4534,-1.4373,-1.4372,-1.437,0,0,0,0,0,0,-1.484,-1.4828,-1.4722,-1.4767,-1.4754,-1.472,-1.4694,-1.4689,-1.4669,-1.463,-1.4623,-1.4658,-1.459,-1.4578,-1.4523,-1.4499,-1.4535,-1.4531,-1.4375,-1.4373,-1.4371,-1.4363,0,0,0,0,0,0,-1.4844,-1.4829,-1.4809,-1.4767,-1.4751,-1.4677,-1.4692,-1.4686,-1.4662,-1.4662,-1.4615,-1.4608,-1.459,-1.453,-1.4518,-1.4493,-1.4527,-1.4377,-1.4374,-1.4372,-1.4366,-1.4361,-1.4357,0,0,0,0,0,-1.4849,-1.4808,-1.4808,-1.4795,-1.4726,-1.4675,-1.4666,-1.4648,-1.466,-1.4638,-1.4613,-1.461,-1.4504,-1.4525,-1.4511,-1.4484,-1.4379,-1.4375,-1.4372,-1.4367,-1.4362,-1.4358,0,0,0,0,0,0,-1.4844,-1.4802,-1.4801,-1.4746,-1.4715,-1.4674,-1.4646,-1.4643,-1.4605,-1.4607,-1.4584,-1.4573,-1.4519,-1.4496,-1.452,-1.4427,-1.4442,-1.4436,-1.4444,-1.4438,-1.4434,-1.4439,-1.4523,0,0,0,0,0,-1.4838,-1.4803,-1.4767,-1.4721,-1.4706,-1.4679,-1.4656,-1.4646,-1.4611,-1.4597,-1.4567,-1.4532,-1.449,-1.4463,-1.4423,-1.4363,-1.4352,-1.4338,-1.4334,-1.4331,-1.4324,-1.429,-1.4283,-1.4359,-1.4359,-1.4359,0,0,-1.4822,-1.4795,-1.4773,-1.472,-1.4694,-1.4656,-1.4668,-1.4627,-1.4597,-1.4589,-1.4536,-1.4514,-1.4472,-1.4415,-1.4387,-1.4394,-1.4302,-1.4326,-1.4324,-1.432,-1.4286,-1.4279,-1.4272,-1.4357,-1.4357,-1.4357,0,0,-1.4773,-1.475,-1.471,-1.4685,-1.4647,-1.463,-1.4621,-1.4581,-1.4566,-1.4513,-1.4507,-1.4471,-1.44,-1.4371,-1.4347,-1.429,-1.4285,-1.4278,-1.4255,-1.4222,-1.4216,-1.421,-1.4188,-1.4181,-1.4272,-1.4272,-1.4272,0,-1.4757,-1.4702,-1.4689,-1.4649,-1.4625,-1.462,-1.4578,-1.4553,-1.4503,-1.4485,-1.4494,-1.4407,-1.4379,-1.4313,-1.43,-1.4281,-1.4268,-1.4281,-1.4218,-1.4213,-1.4207,-1.4186,-1.4178,-1.4272,-1.4272,-1.4272,-1.4272,0,-1.4684,-1.4646,-1.4618,-1.4573,-1.4546,-1.4505,-1.4483,-1.4457,-1.445,-1.4431,-1.4376,-1.4343,-1.4296,-1.4281,-1.4271,-1.4214,-1.4219,-1.4224,-1.4238,-1.42,-1.4179,-1.4171,-1.4271,-1.4271,-1.4271,-1.4271,0,0,-1.4627,-1.4578,-1.4567,-1.4547,-1.4506,-1.4475,-1.4434,-1.4391,-1.4368,-1.4335,-1.4297,-1.424,-1.4244,-1.4217,-1.4205,-1.4176,-1.4131,-1.4184,-1.4182,-1.4173,-1.4064,-1.4059,-1.405,-1.4129,-1.4128,-1.4127,-1.4067,0,-1.4573,-1.4501,-1.4489,-1.4425,-1.4389,-1.4385,-1.4348,-1.4318,-1.43,-1.4265,-1.4244,-1.4203,-1.4213,-1.4196,-1.4168,-1.4143,-1.4109,-1.4147,-1.4091,-1.409,-1.41,-1.404,-1.4034,-1.3979,-1.4059,-1.4058,-1.4057,0,-1.4498,-1.4466,-1.44,-1.4365,-1.4349,-1.4317,-1.4277,-1.4244,-1.4209,-1.4198,-1.4169,-1.4161,-1.4116,-1.4135,-1.4071,-1.4097,-1.4074,-1.4059,-1.4056,-1.4048,-1.4069,-1.4027,-1.3961,-1.3952,-1.4044,-1.4045,-1.4046,0,-1.4462,-1.4401,-1.4354,-1.4337,-1.4295,-1.4272,-1.4253,-1.4221,-1.4196,-1.416,-1.4144,-1.4102,-1.4079,-1.4046,-1.4026,-1.4043,-1.3963,-1.3981,-1.395,-1.395,-1.3931,-1.3932,-1.3858,-1.3921,-1.3921,-1.3921,-1.3921,0,-1.44,-1.4359,-1.4337,-1.4307,-1.4261,-1.4247,-1.42,-1.4181,-1.4153,-1.4118,-1.4112,-1.4078,-1.4056,-1.4018,-1.4003,-1.3951,-1.3941,-1.3929,-1.3924,-1.3928,-1.3929,-1.391,-1.3912,-1.3919,-1.3919,-1.392,-1.392,0,-1.4349,-1.4333,-1.4281,-1.4247,-1.4238,-1.4205,-1.4175,-1.4145,-1.4128,-1.4084,-1.4073,-1.4045,-1.4001,-1.398,-1.3924,-1.3914,-1.3855,-1.3854,-1.3867,-1.3865,-1.3834,-1.3837,-1.3743,-1.3729,-1.3804,-1.3803,-1.3803,0,-1.431,-1.4279,-1.4243,-1.4221,-1.4202,-1.4166,-1.4142,-1.4127,-1.4101,-1.4061,-1.4035,-1.3992,-1.3956,-1.3886,-1.386,-1.3817,-1.3814,-1.3784,-1.3807,-1.3811,-1.381,-1.3811,-1.3807,-1.3779,-1.3778,-1.3778,-1.3777,0,-1.4241,-1.4236,-1.4202,-1.4166,-1.4138,-1.4108,-1.4079,-1.406,-1.404,-1.4011,-1.3968,-1.3941,-1.3887,-1.3843,-1.3799,-1.3777,-1.3772,-1.3771,-1.3761,-1.3762,-1.377,-1.3763,-1.3853,-1.3772,-1.3773,-1.3773,-1.3773,-1.3773,-1.4193,-1.4165,-1.4136,-1.4099,-1.4076,-1.4049,-1.402,-1.4001,-1.3966,-1.3922,-1.3915,-1.3869,-1.3835,-1.3776,-1.3753,-1.3715,-1.3721,-1.3707,-1.3703,-1.3699,-1.3696,-1.378,-1.3707,-1.3707,-1.3707,-1.3707,-1.3707,0,-1.4122,-1.4104,-1.4071,-1.4031,-1.4002,-1.4005,-1.3973,-1.3947,-1.3907,-1.3878,-1.3844,-1.3794,-1.3752,-1.3724,-1.3681,-1.3655,-1.3652,-1.3644,-1.3644,-1.3639,-1.3695,-1.3706,-1.3647,-1.3647,-1.3648,-1.3648,-1.3648,-1.3648,-1.4082,-1.4034,-1.4025,-1.3966,-1.3948,-1.3905,-1.3886,-1.386,-1.3836,-1.3782,-1.3748,-1.3732,-1.3702,-1.3657,-1.3618,-1.361,-1.3593,-1.3585,-1.3577,-1.3629,-1.3635,-1.3641,-1.3652,-1.3582,-1.3582,-1.3524,-1.3523,-1.3523]},{"header":{"parameterUnit":"m.s-1","parameterCategory":1,"la1":30.2991,"la2":30.254,"lo1":-89.0895,"lo2":-89.0444,"dy":0.0017,"dx":0.0017,"nx":28,"ny":28,"refTime":"2024-06-16T21:00:00:Z","depth":0,"parameterNumber":3,"parameterNumberName":"V-component_of_WINDS"},"data":[0,0,0,0,0,0,0,0,0,0,0,0,0,0,0,0,0,0,0,0,0,0,0,0,0,0,0,0,0,0,0,0,0,0,0,0,0,0,0,0,0,0,0,0,0,0,0,0,0,0,0,0,0,0,0,0,0,0,6.3346,6.3347,0,6.3498,6.35,6.3501,6.3476,6.3473,6.3471,6.3468,6.362,6.3627,6.3633,0,0,0,0,0,0,0,0,0,0,0,0,0,6.3029,6.3035,6.3346,6.3348,6.3349,6.3498,6.35,6.3502,6.3477,6.3473,6.347,6.3467,6.3618,6.3626,6.3634,0,0,0,0,0,0,0,0,0,0,0,0,0,6.3172,6.3037,6.3345,6.3355,6.3357,6.3497,6.35,6.3502,6.3477,6.3473,6.3469,6.3466,6.3616,6.3625,6.3635,6.3774,0,0,6.3664,6.3669,0,0,0,0,0,0,0,0,6.3164,6.3184,6.3352,6.3354,6.3357,6.3464,6.3444,6.3593,6.3478,6.3432,6.3468,6.3464,6.3571,6.3584,6.3621,6.3781,6.3787,6.3665,6.3671,6.3675,6.3678,0,0,0,0,0,0,0,6.3154,6.3177,6.3406,6.3354,6.3358,6.335,6.3366,6.3472,6.3521,6.3435,6.3434,6.3452,6.3572,6.3612,6.3625,6.3789,6.3665,6.3674,6.368,6.3684,6.4069,6.4073,0,0,0,0,0,0,6.3142,6.3169,6.3401,6.341,6.3249,6.3359,6.3377,6.3434,6.352,6.353,6.3456,6.3451,6.3597,6.3613,6.363,6.3797,6.3675,6.3685,6.369,6.4065,6.407,6.4075,0,0,0,0,0,0,6.3135,6.3163,6.3395,6.3289,6.3318,6.3369,6.3433,6.3439,6.3479,6.3536,6.3544,6.3488,6.3595,6.3616,6.3738,6.3802,6.3689,6.3698,6.4059,6.4066,6.4072,6.4133,0,0,0,0,0,0,6.3126,6.3161,6.3215,6.3291,6.3324,6.3502,6.3437,6.3445,6.3496,6.3491,6.3568,6.3577,6.3594,6.3724,6.3748,6.3814,6.3705,6.4054,6.4062,6.407,6.4126,6.4141,6.4154,0,0,0,0,0,6.3115,6.3226,6.3218,6.3246,6.3393,6.3505,6.3524,6.3542,6.3501,6.3556,6.3592,6.3574,6.3792,6.3736,6.3763,6.3833,6.405,6.406,6.407,6.4119,6.4138,6.4154,0,0,0,0,0,0,6.3155,6.3236,6.3228,6.3367,6.343,6.3501,6.357,6.3562,6.3636,6.3628,6.3646,6.3664,6.3787,6.3822,6.3759,6.3971,6.3915,6.3931,6.3943,6.3962,6.3976,6.3964,6.3713,0,0,0,0,0,6.318,6.3266,6.3331,6.3447,6.3479,6.3519,6.3569,6.3577,6.3642,6.3668,6.3714,6.3777,6.3859,6.3912,6.3991,6.4131,6.4147,6.4192,6.4207,6.4218,6.4231,6.4306,6.4327,6.4107,6.4107,6.4107,0,0,6.3232,6.3287,6.334,6.3456,6.3506,6.3593,6.3542,6.3636,6.37,6.3682,6.38,6.3836,6.3907,6.4038,6.4098,6.4071,6.4295,6.4231,6.424,6.4246,6.4318,6.4339,6.4358,6.4114,6.4113,6.4112,0,0,6.3371,6.3422,6.3524,6.3575,6.3651,6.3677,6.3701,6.3775,6.3798,6.3916,6.3905,6.3981,6.4122,6.4173,6.4218,6.4376,6.4362,6.4401,6.4475,6.4549,6.4566,6.4581,6.4636,6.4656,6.4414,6.4415,6.4415,0,6.3426,6.3558,6.3576,6.3672,6.3723,6.3713,6.3815,6.3863,6.396,6.3995,6.3964,6.4141,6.4189,6.4331,6.437,6.4407,6.4434,6.4392,6.4562,6.4578,6.4592,6.4645,6.4666,6.4419,6.4418,6.4418,6.4417,0,6.362,6.3712,6.3784,6.388,6.3939,6.4038,6.407,6.4127,6.4131,6.416,6.428,6.4336,6.4426,6.4461,6.4465,6.4604,6.4584,6.4558,6.4501,6.4617,6.4667,6.4687,6.4425,6.4423,6.4422,6.4421,0,0,6.3788,6.3893,6.3919,6.3962,6.4046,6.4116,6.4213,6.4302,6.435,6.4418,6.4499,6.4619,6.4595,6.4645,6.4655,6.4719,6.4839,6.4685,6.4686,6.471,6.4994,6.5012,6.5035,6.4831,6.4835,6.4838,6.4987,0,6.3934,6.4107,6.4127,6.428,6.4364,6.4355,6.444,6.4499,6.4529,6.4603,6.4635,6.4719,6.4682,6.4712,6.4775,6.4811,6.4896,6.4801,6.4905,6.4908,6.4886,6.5062,6.5082,6.5219,6.5007,6.501,6.5013,0,6.4127,6.4201,6.4364,6.4435,6.4471,6.4546,6.4629,6.4701,6.4767,6.4784,6.4841,6.4842,6.494,6.4881,6.5017,6.4951,6.4995,6.5019,6.5025,6.5034,6.4966,6.5074,6.5264,6.5284,6.5044,6.5041,6.5039,0,6.4231,6.4372,6.4487,6.4524,6.461,6.4663,6.4701,6.4764,6.4816,6.4888,6.4921,6.5004,6.5048,6.5111,6.5134,6.5089,6.5268,6.5211,6.5283,6.5282,6.532,6.5317,6.5518,6.5351,6.535,6.535,6.535,0,6.4391,6.4491,6.4535,6.4605,6.4715,6.4737,6.4845,6.488,6.4936,6.5012,6.501,6.5081,6.5107,6.5183,6.5201,6.5309,6.533,6.5345,6.5348,6.5345,6.5342,6.5372,6.5363,6.5356,6.5354,6.5353,6.5352,0,6.4526,6.456,6.4684,6.4756,6.4776,6.4854,6.4914,6.4982,6.501,6.5107,6.513,6.5175,6.5263,6.5293,6.5399,6.5412,6.5537,6.5533,6.5515,6.5515,6.5585,6.5578,6.5811,6.5842,6.5656,6.5658,6.5659,0,6.4625,6.4702,6.4782,6.4833,6.4873,6.4956,6.5009,6.5033,6.5088,6.5169,6.5226,6.5314,6.5385,6.5527,6.5568,6.5649,6.5646,6.5722,6.5658,6.5651,6.5645,6.564,6.5646,6.5733,6.5735,6.5737,6.5738,0,6.4798,6.4811,6.4888,6.4971,6.5035,6.5101,6.5165,6.5207,6.524,6.5301,6.5392,6.5448,6.5557,6.5643,6.5726,6.5764,6.5756,6.5758,6.5779,6.5775,6.5761,6.5768,6.5546,6.5753,6.5751,6.575,6.5749,6.5749,6.4917,6.4984,6.505,6.5136,6.5187,6.5247,6.5313,6.535,6.5427,6.5518,6.5527,6.5624,6.5688,6.5799,6.584,6.5916,6.5894,6.5925,6.5932,6.5939,6.5943,6.575,6.5931,6.5931,6.5931,6.593,6.593,0,6.5088,6.513,6.5209,6.5299,6.5366,6.5355,6.5425,6.5481,6.5567,6.5628,6.5698,6.5802,6.5886,6.5933,6.6017,6.6068,6.6067,6.6089,6.6085,6.6093,6.5959,6.5932,6.6089,6.6089,6.6089,6.6089,6.6089,6.6089,6.5185,6.5297,6.5317,6.5454,6.5495,6.5591,6.5632,6.5686,6.5735,6.5851,6.5921,6.5952,6.6007,6.6094,6.617,6.6182,6.6212,6.6237,6.6246,6.6119,6.6103,6.6087,6.6062,6.6243,6.6244,6.6374,6.6375,6.6376]}]]